Hourly Data Report for July 07, 2003

TORONTO CITY
ONTARIO

43°40'00.000" N
79°24'00.000" W
112.50 m
6158355
71508
XTO

Download Data

Hourly Data (July 2003)
Hourly Data Report for July 7, 2003
TIME
LST
Temp Definition
°C
Dew Point Definition
°C
Rel Hum Definition
%
Precip. Amount Definition
mm

Wind Dir Definition
10's deg

Wind Spd Definition
km/h
Visibility Definition
km
Stn Press Definition
kPa
Hmdx Definition


Wind Chill Definition


Weather Definition


00:00 23.0 16.0 65   LegendMM LegendMM LegendMM 99.87 28   LegendNANA
01:00 22.8 14.1 58   LegendMM LegendMM LegendMM 99.85 26   LegendNANA
02:00 22.0 14.4 62   LegendMM LegendMM LegendMM 99.84 26   LegendNANA
03:00 21.3 16.0 72   LegendMM LegendMM LegendMM 99.80 26   LegendNANA
04:00 21.2 18.2 83   LegendMM LegendMM LegendMM 99.79 27   LegendNANA
05:00 21.6 19.7 89   LegendMM LegendMM LegendMM 99.86 29   LegendNANA
06:00 20.5 19.7 95   LegendMM LegendMM LegendMM 99.84 28   LegendNANA
07:00 21.2 20.5 96   LegendMM LegendMM LegendMM 99.78 29   LegendNANA
08:00 19.7 19.2 97   LegendMM LegendMM LegendMM 99.83     LegendNANA
09:00 21.3 20.6 96   LegendMM LegendMM LegendMM 99.85 29   LegendNANA
10:00 23.2 20.7 86   LegendMM LegendMM LegendMM 99.78 31   LegendNANA
11:00 22.3 20.7 91   LegendMM LegendMM LegendMM 99.79 30   LegendNANA
12:00 21.9 20.9 94   LegendMM LegendMM LegendMM 99.75 30   LegendNANA
13:00 22.2 20.8 92   LegendMM LegendMM LegendMM 99.67 30   LegendNANA
14:00 24.0 20.5 81   LegendMM LegendMM LegendMM 99.66 32   LegendNANA
15:00 23.7 20.5 82   LegendMM LegendMM LegendMM 99.63 32   LegendNANA
16:00 23.3 20.1 82   LegendMM LegendMM LegendMM 99.60 31   LegendNANA
17:00 23.2 20.1 83   LegendMM LegendMM LegendMM 99.60 31   LegendNANA
18:00 24.0 20.6 81   LegendMM LegendMM LegendMM 99.62 32   LegendNANA
19:00 22.9 20.3 85   LegendMM LegendMM LegendMM 99.63 31   LegendNANA
20:00 22.1 19.9 87   LegendMM LegendMM LegendMM 99.62 30   LegendNANA
21:00 21.2 19.4 89   LegendMM LegendMM LegendMM 99.68 28   LegendNANA
22:00 20.6 19.4 93   LegendMM LegendMM LegendMM 99.68 28   LegendNANA
23:00 20.1 19.3 95   LegendMM LegendMM LegendMM 99.67 27   LegendNANA

Notes on Data Quality.

Legend

  • E = Estimated
  • M = Missing
  • NA = Not Available*
  • [empty] = Indicates an unobserved value
Date modified: